Weather in Syukterka

Russia / Chuvash Republic     56°07′28″N   47°02′25″E
temp.,
°C
wind,
m/s
gust,
m/s
humid.,
%
clouds,
%
prec.,
mm/h
press.,
hPa
HPBL,
m
1 july, fri
fri100:00+9ne3886100 0.1 1013303
03:00+5nne411925 0.1 1014338
06:00+7nne598540 0.0 1014492
09:00+8nne6775100 0.0 1015968
12:00+11ne6767100 0.1 10161281
15:00+15ne475683 0.1 10161645
18:00+15nne486652 0.1 1016980
21:00+11n511850 0.1 1017228
2 july, sat
sat200:00+12nne514874 0.0 1017334
03:00+9nne411913 0.0 1017189
06:00+12nne497694 0.0 1017236
09:00+18nne575545 0.0 1017825
12:00+21nne464526 0.0 10161836
15:00+22nne45447 0.0 10152062
18:00+20nne36625 0.0 1014293
21:00+17s006361 0.0 101311
3 july, sun
sun300:00+16wnw117368 0.1 101313
03:00+13nnw22875 0.2 101218
06:00+15ne588917 0.0 1013358
09:00+17ne567779 0.0 1013670
12:00+20ne666444 0.0 10131202
15:00+21nne676181 0.0 10131439
18:00+19nne5870100 0.0 1014775
21:00+14nne2282100 0.0 101520
4 july, mon
mon400:00+13nnw338892 0.0 101528
03:00+14n377865 0.0 1015170
06:00+15n367741 0.0 1015242
09:00+20ne35566 0.0 1016938
12:00+22ne57435 0.0 10162300
15:00+23ne464326 0.0 10152207
18:00+21ne256163 0.0 1015222
21:00+16ese007235 0.0 101611
5 july, tue
tue500:00+14wsw22775 0.0 101717
03:00+13wnw22795 0.0 101722
06:00+17wnw23715 0.0 1017110
09:00+22wnw23565 0.0 1017541
12:00+25wnw334635 0.0 10161519
15:00+25w3446100 0.0 10151460
18:00+23sw476781 0.0 1015239
21:00+19sw46710 0.0 101483